Regional Weather Roundup
Issued by NWS

Home | Current Version | Previous Version | Graphics & Text | Print | Product List | Glossary On
Versions: 1 2 3 4 5 6 7 8 9 10 11 12 13 14 15 16 17 18 19 20 21 22 23 24 25 26 27 28 29 30 31 32 33 34 35 36 37 38 39 40 41 42 43 44 45 46 47 48 49 50
000
ASUS45 KABQ 281301
RWRNM
WEATHER ROUNDUP FOR NEW MEXICO
NATIONAL WEATHER SERVICE ALBUQUERQUE NM
600 AM MST SAT FEB 28 2015

NOTE: "FAIR" MEANS FEW OR NO CLOUDS BELOW 12,000 FEET AGL WITH NO
       SIGNIFICANT WEATHER OR OBSTRUCTIONS TO VISION.

      THIS PRODUCT IS RELEASED AS TWO VERSIONS.  ONE VERSION NEAR
      THE TOP OF THE HOUR CONTAINING PRELIMINARY DATA FROM ALBUQUERQUE
      AND OTHER STATIONS.  A FINAL VERSION WITH ADDITIONAL DATA IS
      ISSUED ABOUT 10 MINUTES AFTER THE HOUR.

NMZ501-503-504-510>518-281400-
NORTHWEST PLATEAU/NORTHCENTRAL MOUNTAINS

CITY           SKY/WX    TMP DP  RH WIND       PRES   REMARKS
FARMINGTON     LGT SNOW  29  27  92 E10       29.77F VSB 1   WCI  20
LOS ALAMOS     LGT SNOW  14  14 100 CALM      29.86S VSB 1
SANTA FE       LGT SNOW  16  12  84 SE6       29.89R VSB 3/4 WCI   7
TAOS           CLOUDY    16  10  79 CALM      29.86R
ANGEL FIRE     LGT SNOW  22  20  91 CALM      29.82R

$$
NMZ402-403-502-505>509-281400-
WESTCENTRAL MOUNTAINS/SOUTHWEST MOUNTAINS

CITY           SKY/WX    TMP DP  RH WIND       PRES   REMARKS
GALLUP         LGT SNOW  31  30  96 E3        29.75S FOG
GRANTS         LGT SNOW  23  22  93 SE10G16   29.82S WCI  13
SILVER CITY    PTCLDY    27  21  80 NW7       29.91R WCI  19

$$
NMZ407-409-411-412-281400-
SOUTHERN DESERTS

CITY           SKY/WX    TMP DP  RH WIND       PRES   REMARKS
LORDSBURG      FAIR      32  23  69 S10       29.87R WCI  24
DEMING         CLEAR     25  20  81 NE7       29.92S WCI  17
LAS CRUCES     CLEAR     27  23  84 SE9       29.95R WCI  18
HOLLOMAN AFB   PTCLDY    22  19  87 N3        29.98R
ALAMOGORDO     PTCLDY    25  19  80 CALM      29.99R
T OR C         MOCLDY    32  24  72 SW7       29.89R WCI  26

$$
NMZ519>523-281400-
CENTRAL VALLEYS/CENTRAL HIGHLANDS

CITY           SKY/WX    TMP DP  RH WIND       PRES   REMARKS
ALBUQUERQUE    LGT SNOW  20  18  92 N7        29.91S VSB 1   WCI  11
DOUBLE EAGLE   LGT SNOW  18  16  93 NE9       29.89R VSB 1   WCI   6
MORIARTY ARPT  LGT SNOW  14  11  87 S5        29.93R WCI   7
CLINES CORNERS LGT SNOW  12   8  84 SE6       29.85R FOG     WCI   3
BELEN          FLURRIES  22  22  98 NE6       29.91S WCI  15
SOCORRO          N/A     26  24  93 CALM      29.91R

$$
NMZ524>526-539-540-281400-
SOUTHCENTRAL MOUNTAINS

CITY           SKY/WX    TMP DP  RH WIND       PRES   REMARKS
RUIDOSO        NOT AVBL

$$
NMZ527>531-281400-
NORTHEAST HIGHLANDS/NORTHEAST PLAINS

CITY           SKY/WX    TMP DP  RH WIND       PRES   REMARKS
LAS VEGAS      LGT SNOW   9   6  88 S22       29.86S FOG     WCI -11
RATON          CLOUDY     7   5  91 W5        29.90R WCI  -2
CLAYTON        MOCLDY    12   8  84 S21       29.95S WCI  -7

$$
NMZ532>537-281400-
EASTCENTRAL PLAINS

CITY           SKY/WX    TMP DP  RH WIND       PRES   REMARKS
TUCUMCARI      CLOUDY    16  12  84 S16       30.06R WCI   1
CANNON AFB     CLOUDY    13  10  90 S7        30.07S FOG     WCI   2
CLOVIS AIRPORT CLOUDY    12   9  85 S5        30.08F WCI   4

$$
NMZ028-029-538-281400-
SOUTHEAST PLAINS

CITY           SKY/WX    TMP DP  RH WIND       PRES   REMARKS
ROSWELL        CLOUDY    20  18  92 S13       30.10R WCI   7
ARTESIA        CLOUDY    21  21 100 SE16      30.12S WCI   7
CARLSBAD       CLOUDY    23  20  88 SE10      30.12S FOG     WCI  12
HOBBS          CLOUDY    18  18 100 E7        30.13S FOG     WCI   8


$$



USA.gov is the U.S. government's official web portal to all federal, state and local government web resources and services.